List of Articles
번호
제목
글쓴이 날짜 조회수
145 Screaming Weblog 48086 new Terese57J9181101568 2019-06-26 1
144 Why You Need To Hire Movers 39860 new LeticiaPrewitt849253 2019-06-26 1
143 A Glimpse Of The Past Through Baton Rouge Historic Homes 13535 new KyleProvost571483110 2019-06-26 1
142 What Is ISO 9000 37708 new LoganX151188018393 2019-06-26 1
141 Methods For Getting The Accurate Market Value Of One's Home 47346 new JulieDimattia51 2019-06-26 1
140 All You Have To To Learn About Marijuana Drug Screening & THC Drug Testing 18292 new RegenaNguyen66070 2019-06-26 1
139 Barbecue Sauce For A Perfect Barbeque 28353 new OXMJonna069266956 2019-06-26 2
138 Why You Need To Hire Movers 15716 new LyndonQuesinberry774 2019-06-26 1
137 Southern Charm In Nashville Actual Estate 47689 new FredricDevanny36 2019-06-26 1
136 Why You Need To Hire Movers 37340 new RichardSturgill401 2019-06-26 5
135 Exactly What You Long For Know About Bad Credit Auto Loans To Create A Good Purchase new JeanetteVanguilder27 2019-06-26 1
134 Access Your COMPUTER Slightly From Everywhere In The World 45781 new VenettaLienhop835590 2019-06-26 4
133 Why You Need To Hire Movers 38479 new TrentJevons7460940 2019-06-26 1
132 Making Funds In True Estate 17175 new HermanChinKaw927590 2019-06-26 6
131 Bank Cards Observe 40th Anniversary 13661 new ArnoldoMarrero53 2019-06-26 4
130 Baseball Q&A: Football Facts You Might Not Have Known 33592 new Kristen73053826947560 2019-06-26 3
129 scrap mechanic gratuit new ametep 2019-06-26 6
128 All The Amazing Secrets About Go Karts In Calgary 39136 new SimoneBronson617 2019-06-26 15
127 Wipe Off The Years From Your Appearance 40926 new AnjaMontoya14275 2019-06-26 15
126 Investigate Surrounding Vacant Land Ahead Of Buying 27687 new DesireeShin6866657 2019-06-26 11
125 Dental Enhancement Companies: Grounds To Look 22115 new WarrenM00133835 2019-06-26 22
124 An Trouble-free Guide To Developing Hyperlinks To Your Internet Site 41015 new KoreyGxt851818077 2019-06-26 11
123 Where To Find Rage Management Classes 12472 new StephanyColburn94354 2019-06-26 13
122 Now Will Be The Right Time To Buy A Home 39513 new LarryLefevre24909 2019-06-26 11
121 Marketing Your House To Homebuyers 12243 new ShanonMighell49234072 2019-06-26 19
120 Try These Guidelines If You Have Plumbing Problems 44310 new DaisyDraper06877 2019-06-26 17
119 Baltimore Mortgage Alternatives 47805 new LonGoldsbrough56 2019-06-26 19
118 Investing In River Oaks Housing For A Successful Purchase 35631 new ShaynaNoriega859 2019-06-25 12
117 Tinted Windows Offer You Protection From The Suns Rays 14362 new GenaWnm399040685 2019-06-25 19
116 San Antonio: An Amazing Town For Tourist 22459 new IslaC906119283618063 2019-06-25 13
115 News And The Net 41475 new MarisaOvm67971527 2019-06-25 16
114 deep diving simulator pc downloaden new yvisorag 2019-06-25 11
113 What Are All Of The Ser-vices Movers Provide? 14452 new MarianoVtx18600759 2019-06-25 12
112 Deion Sanders 1989 Draft Day Picks 48288 new JolieRadecki04099 2019-06-25 15
111 Dirk Goes Wild And Suns Neglect To Include! 31801 new AngelaDoll2364614 2019-06-25 20
110 Expertise Racing In Indiana 48396 new AlbertinaPearse2 2019-06-25 13
109 Marketing Your House To Homebuyers 12447 new GarlandGuest935 2019-06-25 18
108 Southern Charm In Nashville True Estate 40197 new AlbaMoe607381321528 2019-06-25 19
107 Why You Should Consider An Organic Colon Cleanse 26082 Sherlyn1040249642 2019-06-25 12
106 The Importance Of Dental Care To Over All Body Health 33092 FlossieGustafson232 2019-06-25 18
105 All The Wonderful Secrets About Go Karts In Calgary 48256 DavisTakasuka9824486 2019-06-25 13
104 Is It Worth Getting An Affordable Blog Hosting? 17858 TereseVial573621 2019-06-25 13
103 Las Vegas Coupons And How To Save 11411 KishaMandalis9573681 2019-06-25 21
102 Only Say Peer-pressure And No: Healthy-eating 37682 AnneDarker004193508 2019-06-25 15
101 The Back Chiropractor 13468 AlvaStiner388831149 2019-06-25 12
100 demo fifa 20 gratuit ylenebe 2019-06-25 11
99 Now Could Be The Right Time To Get A Home 15338 Alexandra881328 2019-06-25 13
98 Memorialize Your Incredible Wedding Via Breathtaking Las Vegas Wedding Venues 23741 BlondellBear6712140 2019-06-25 18
97 Self Aid Techniques Are Obtainable To Take The Anger Out Of Your Method 39522 WilmaPigott22260 2019-06-25 17
96 5 Great Strategies For Your Cosmetic Dentistry Procedures 24275 SyreetaNeubauer 2019-06-25 16
95 Peer-pressure And Alcohol: A Difficult Mix For All Teens 45140 Ambrose27932655938663 2019-06-25 16
94 2 EdmundTenney40038 2019-06-25 28
93 911 operator gratuit oziwol 2019-06-25 17
92 Interested In An Easy Wholesale Diamond Prices? You Have To See This KalaSessions4801638 2019-06-25 16
91 among trees heruterladen iniqyny 2019-06-24 16
90 Helping Someone You Care About Get Off Weed 18741 ArtFitts49274588413 2019-06-24 23
89 Saving Power Heating Your Household In A Lukewarm Economy 18855 MarianoPring330 2019-06-24 29
88 Homebuyers Benefit From Tightening Credit Industry 33899 OuidaHildebrand 2019-06-24 22
87 How To Search For The Ideal Place To Relocate In Las Vegas 42871 RodrigoLapham5192 2019-06-24 25
86 fifa 20 demo pc download imunot 2019-06-24 21
85 Community Marketing Marketing O-nline 38042 IsabellBrown0727 2019-06-24 29
84 Dildo Satisfies The Burning Need 46649 DerrickB0220774053 2019-06-24 26
83 Forensic Nursing Certifications Can Qualify Registered Nurses 32123 EleanorBrookfield77 2019-06-24 25
82 Homeowners Benefit From Tightening Credit Market 45051 IsiahMcgehee83803151 2019-06-24 35
81 Does Your Parking Lot Look Busy? Your Prospects Are Watching 47991 RoyN870615509039 2019-06-24 26
80 How To Get Started Writing And Submitting Articles 38814 LashayMaple4920085174 2019-06-24 39
79 Homebuyers Reap The Benefits Of Shrinking Lending Market 33579 AlfonsoAllardyce 2019-06-24 30
78 Error Authenticating. Either Bad Username/Password Or Your Account Has Outstanding Payments Due 47802 TanishaFrance4206290 2019-06-24 32
77 Error Authenticating. Either Bad Username/Password Or Your Account Has Outstanding Payments Due 48687 DarnellHeadrick 2019-06-24 26
76 frostpunk crack ezixet 2019-06-24 37
75 fifa 20 pc download amuge 2019-06-23 40
74 Homebuyers Take Advantage Of Securing Credit Market 47185 JacquieHeidelberg746 2019-06-23 50
73 Homebuyers Take Advantage Of Securing Credit Market 26714 DaltonEllwood302 2019-06-23 51
72 Homeowners Reap The Benefits Of Shrinking Lending Industry 19197 TwilaMeehan367219 2019-06-23 47
71 Dildo The Masturbator Revitalizing Individuals Sexual Experience. 12770 EldonFranklyn31 2019-06-23 39
70 mr prepper download pc yfogobi 2019-06-23 37
69 Well Made Kids Toys At Exemplary Prices 22622 AmbroseHoare132766 2019-06-23 40
68 Player Profile: Joe Moneymaker 31933 Chauncey6925809 2019-06-23 42
67 Between Scholarship Programs And Student Loans 17743 LeviPrendiville45 2019-06-23 42
66 ogrodzenia torun ylifulur 2019-06-23 43
65 Reasons Believe About Credit Report Repair ChristyF8389081417 2019-06-23 47
64 Louisiana: An Outdoor Knowledge 21534 Estelle89C042690737 2019-06-23 59
63 Buyers Take Advantage Of Shrinking Financing Industry 24494 ThaliaOstermann05194 2019-06-23 52
62 Shouting Weblog 15077 ClairMeeson2507 2019-06-23 50
61 Capital Increases 17292 YBDRaymundo151981453 2019-06-23 56
60 Shouting Weblog 13145 LourdesW2926781 2019-06-23 58
59 Flowers And Emotional Appeal In House Attempting To Sell 30017 NinaQuv663420562 2019-06-23 57
58 5 Wonderful Places To Go Camping In Virginia 42368 MyraHarlow85385 2019-06-23 59
57 Strategies For Choosing The Cooling Builder 11987 ReynaShivers20739 2019-06-23 56
56 Tennessee Real Estate Music To The Ears 18912 MathewMcduffie58544 2019-06-22 57
55 Selling Your Blog With Small Budget 10075 PorfirioBaudinet7004 2019-06-22 58
54 Baltimore, Maryland, The Charm City 17398 MaricelaMarston 2019-06-22 63
53 Michael Vick 22898 LorrineHuish74147 2019-06-22 56
52 How To Figure Out The Most Ideal Place To Purchase A Home In Las Vegas 26513 JaydenAfford779475 2019-06-22 52
51 Minnesota Real Estate The Nature Of Water 31893 PamalaSchmitz24519 2019-06-22 55
50 Baltimore, Maryland, The Charm City 39517 MarinaHockaday4 2019-06-22 65
49 Finding An Affordable Web Site Hosting Plan 10097 ShermanSolberg0 2019-06-22 54
48 Alcohol Rehab 39050 HesterBirdwood28786 2019-06-22 57
47 Get Growth From Your Own Plants 45310 CletaSimonetti1376 2019-06-22 54
46 Remember Your Wedding Inside The Incredible Las Vegas Wedding Venues 29992 CruzRosenhain4765057 2019-06-22 58
45 Finding Treatment With Drug Detox 38369 GrantBliss0652902 2019-06-22 55
44 A New Collection Of African Tribal Art 35158 LarryGrider066376150 2019-06-22 56
43 Finding A Reasonable Web Site Hosting Plan 12040 CandySchmid2187101 2019-06-22 68
42 Louisiana Property A French Influence 22288 HansPitt77554170 2019-06-22 62
41 Methadone: A Strong Drug For Treatment Of Discomfort And Drug Dependency 12429 DylanTps6826438150281 2019-06-22 57
40 Experience Your Incredible Wedding Ceremony In Spectacular Las Vegas Wedding Venues 23695 AdrianaF93044185088 2019-06-22 58
39 Finding An Affordable Web Site Hosting Plan 46452 CelsaSainthill6 2019-06-22 62
38 fifa 20 demo telecharger ewelih 2019-06-22 56
37 Strategies For Selecting A Cooling Builder 31917 AnnelieseQuiros32762 2019-06-22 62
36 Memorialize The Best Marriage Ceremony Inside The Stunning Las Vegas Wedding Venues 35655 EdnaHoff2927316 2019-06-22 65
35 Finest Thai Food Delivery Restaurant Las Vegas - Finding Great Asian Food Delivery Quick In Vegas Baby 45373 EmiliaAmadio433382637 2019-06-22 104
34 Yes, You Require An Write-up Submitter 38520 EricaDerrington01011 2019-06-22 57
33 Dildo Meets The Burning Need 49923 LouieBernard0318 2019-06-22 59
32 Bill Relief Loans - Fast Debt Removal 10086 FrederickaGagnon 2019-06-22 60
31 Five Fantastic Places To Go Camping In Virginia 38990 SyreetaV322285883 2019-06-22 63
30 How You Can Develop A Money Tree 47589 Alberto769892786244 2019-06-22 68
29 Strategy Your Immigration At Every Stage 26169 JaymeY6505282145540 2019-06-22 71
28 Hiring A Custom For Your Home Upgrading Project 33207 ThaliaPinner0198 2019-06-22 76
27 Popular Flamethrower's High Altitude Chili Cook-off Week-end 20588 LydaMcGhee4981120 2019-06-22 69
26 Fb Info 23930 JohnathanRiddell1452 2019-06-22 68
25 Serious Pain Relief: A Summary 29582 JacquettaSegal720266 2019-06-22 66
24 Plan Your Immigration At Every Single Stage 34931 IsabelleMarte0925 2019-06-22 77
23 Why Chiropractic Is A Good Idea 11712 RockyNeidig88499 2019-06-21 68
22 How To Compose Strong Scholarship Essay And Get Scholarship You Are Aiming At 29456 RosalinaB010338562 2019-06-21 78
21 Leadership: Is Mentoring For You? 25712 RustyCromer3592 2019-06-21 73
20 News And The Internet 14661 MacTickell11843040 2019-06-21 75
19 Your Opportunities For Automobile Donation In Portland 25625 CaitlynDonnithorne2 2019-06-21 74
18 Shouting Blog 14880 HiramNunes3125618 2019-06-21 80
17 What Are Most Of The Services Movers Offer? 48540 AlannahUlrich025830 2019-06-21 73
16 Strategy Your Immigration At Each And Every Stage 15213 IlseThomson624895 2019-06-21 87
15 Community Marketing Advertising Online 42857 LutherDavison9047 2019-06-21 72
14 Famous Flamethrower's Thin Air Chili Cook-off Weekend 48143 RonnyJ3272434609572 2019-06-21 78
13 How You Can Develop A Money Tree 47589 RosauraColdiron7838 2019-06-21 76
12 Essential Info Related To Unique Sorts Of Barrington Roofers Accessible Right Now WinfredPoi5078563 2019-06-21 77
11 Boards - The Business Gold-mine? 43135 LewisMccurry6617 2019-06-21 200
10 The Crucial Of Successful Descriptive Essay 24544 SantiagoT207716207 2019-06-21 77
9 Where To Find Good Broadband Quality Sports Videos & Sports Media On The Web Free Of Charge 28503 GrazynaFunderburk97 2019-06-21 76
8 Bunny Jewelry: An Indication Of Improvement 12175 KatrinaQ85257914780 2019-06-21 75
7 tropico 6 pc download umakux 2019-06-21 68
6 Your Opportunities For Car Donation In Portland 35077 SamaraColorado971 2019-06-21 85
5 Quality On The Web Roofing Resources 39996 LenoreV95560675870990 2019-06-21 74
4 The Accomplishment Brought By A Medical / Nurse Staffing Agency Business 17668 JocelynOliver8608467 2019-06-21 89
3 Monday The Day 37857 Nelly33J843786227 2019-06-21 90
2 Accommodations In Chandler, Arizona: Warm Deals In A City 46028 DanutaHines5029943 2019-06-21 73
1 Your Opportunities For Auto Donation In Portland 41732 WillaCady9494822617 2019-06-21 91